[[{"header":{"parameterUnit":"m.s-1","parameterCategory":1,"la1":30.2991,"la2":30.254,"lo1":-89.0895,"lo2":-89.0444,"dy":0.0017,"dx":0.0017,"nx":28,"ny":28,"refTime":"2023-09-01T21:00:00:Z","depth":0,"parameterNumber":2,"parameterNumberName":"U-component_of_WINDS"},"data":[0,0,0,0,0,0,0,0,0,0,0,0,0,0,0,0,0,0,0,0,0,0,0,0,0,0,0,0,0,0,0,0,0,0,0,0,0,0,0,0,0,0,0,0,0,0,0,0,0,0,0,0,0,0,0,0,0,0,-0.952,-0.952,0,-0.9532,-0.9532,-0.9532,-0.9567,-0.9568,-0.9569,-0.957,-0.9578,-0.9578,-0.9577,0,0,0,0,0,0,0,0,0,0,0,0,0,-0.9527,-0.9527,-0.952,-0.952,-0.952,-0.9532,-0.9532,-0.9532,-0.9567,-0.9568,-0.9569,-0.957,-0.9578,-0.9578,-0.9577,0,0,0,0,0,0,0,0,0,0,0,0,0,-0.953,-0.9526,-0.952,-0.9539,-0.9541,-0.9532,-0.9532,-0.9532,-0.9567,-0.9568,-0.9569,-0.957,-0.9579,-0.9578,-0.9577,-0.9549,0,0,-0.9575,-0.9575,0,0,0,0,0,0,0,0,-0.9529,-0.9529,-0.9536,-0.9538,-0.954,-0.9549,-0.9537,-0.9537,-0.9567,-0.9557,-0.957,-0.9571,-0.9567,-0.9568,-0.9567,-0.9549,-0.955,-0.9575,-0.9574,-0.9574,-0.9574,0,0,0,0,0,0,0,-0.9529,-0.9529,-0.9525,-0.9536,-0.9539,-0.9547,-0.9549,-0.9538,-0.9555,-0.9558,-0.9561,-0.9562,-0.9569,-0.9568,-0.9568,-0.955,-0.9575,-0.9574,-0.9574,-0.9573,-0.9508,-0.9507,0,0,0,0,0,0,-0.9526,-0.9529,-0.9524,-0.9525,-0.9538,-0.9546,-0.9548,-0.9545,-0.9556,-0.9558,-0.9561,-0.9563,-0.9569,-0.9568,-0.9568,-0.9534,-0.9574,-0.9573,-0.9573,-0.9509,-0.9508,-0.9506,0,0,0,0,0,0,-0.9527,-0.9526,-0.9524,-0.9527,-0.9528,-0.9544,-0.9541,-0.9545,-0.9544,-0.9558,-0.9561,-0.9556,-0.9569,-0.9569,-0.9553,-0.9535,-0.9573,-0.9572,-0.9511,-0.9509,-0.9507,-0.9467,0,0,0,0,0,0,-0.9527,-0.9526,-0.9515,-0.9527,-0.9528,-0.9509,-0.954,-0.9544,-0.9543,-0.9546,-0.9555,-0.9557,-0.957,-0.9554,-0.9553,-0.9535,-0.9572,-0.9513,-0.951,-0.9508,-0.9469,-0.9463,-0.9458,0,0,0,0,0,-0.9527,-0.9503,-0.9515,-0.9514,-0.9515,-0.9508,-0.9508,-0.9525,-0.9541,-0.953,-0.954,-0.9557,-0.9538,-0.9552,-0.9551,-0.9532,-0.9514,-0.9511,-0.9508,-0.9472,-0.9465,-0.9458,0,0,0,0,0,0,-0.9487,-0.9505,-0.9518,-0.9497,-0.9501,-0.9514,-0.9501,-0.9517,-0.9515,-0.9518,-0.9538,-0.954,-0.9521,-0.9526,-0.9541,-0.9505,-0.9529,-0.9525,-0.9502,-0.9495,-0.949,-0.9487,-0.9571,0,0,0,0,0,-0.9477,-0.947,-0.9486,-0.9466,-0.9467,-0.9484,-0.9481,-0.9494,-0.9498,-0.95,-0.9508,-0.951,-0.9505,-0.9501,-0.9497,-0.9472,-0.9473,-0.9458,-0.9453,-0.9448,-0.9444,-0.9429,-0.9422,-0.9497,-0.9497,-0.9497,0,0,-0.9453,-0.9462,-0.9457,-0.9458,-0.9463,-0.9454,-0.9485,-0.9475,-0.9469,-0.9498,-0.9483,-0.9489,-0.9494,-0.9473,-0.9464,-0.9476,-0.9424,-0.9444,-0.944,-0.9439,-0.9426,-0.9418,-0.9412,-0.9495,-0.9495,-0.9496,0,0,-0.9406,-0.9414,-0.9397,-0.9401,-0.9408,-0.942,-0.9416,-0.9427,-0.9432,-0.9418,-0.944,-0.9433,-0.9424,-0.9425,-0.9425,-0.9381,-0.9396,-0.9379,-0.9348,-0.9334,-0.9328,-0.9323,-0.9305,-0.9298,-0.9376,-0.9376,-0.9376,0,-0.9376,-0.9365,-0.9387,-0.9375,-0.9375,-0.9403,-0.9386,-0.9389,-0.9394,-0.9392,-0.9407,-0.9395,-0.9401,-0.938,-0.9369,-0.9369,-0.9364,-0.9377,-0.9328,-0.9323,-0.9318,-0.9301,-0.9294,-0.9373,-0.9374,-0.9374,-0.9374,0,-0.9327,-0.9319,-0.9306,-0.931,-0.9309,-0.9295,-0.9313,-0.9309,-0.9322,-0.9332,-0.9317,-0.9325,-0.9322,-0.9319,-0.9332,-0.93,-0.9307,-0.9324,-0.9348,-0.9308,-0.9292,-0.9286,-0.937,-0.9371,-0.9372,-0.9372,0,0,-0.9252,-0.927,-0.9264,-0.9267,-0.9277,-0.9271,-0.9259,-0.9257,-0.9252,-0.9256,-0.9244,-0.9237,-0.9253,-0.9253,-0.9266,-0.9254,-0.9216,-0.9273,-0.9273,-0.926,-0.9179,-0.9163,-0.9155,-0.9228,-0.9227,-0.9226,-0.9177,0,-0.9205,-0.9185,-0.9204,-0.9179,-0.9172,-0.92,-0.9189,-0.9193,-0.9203,-0.9197,-0.9208,-0.9201,-0.9224,-0.9224,-0.9214,-0.9223,-0.9199,-0.9227,-0.9215,-0.9214,-0.9209,-0.9147,-0.9131,-0.9084,-0.9172,-0.9171,-0.917,0,-0.9147,-0.9148,-0.9123,-0.9135,-0.9133,-0.9122,-0.9122,-0.9118,-0.9124,-0.9131,-0.9132,-0.9149,-0.9137,-0.9163,-0.9145,-0.9163,-0.916,-0.9164,-0.9163,-0.9159,-0.9187,-0.9139,-0.907,-0.9062,-0.9161,-0.9162,-0.9162,0,-0.9092,-0.9087,-0.9071,-0.9073,-0.9087,-0.9079,-0.9084,-0.9092,-0.909,-0.9091,-0.9089,-0.9088,-0.9086,-0.9085,-0.9101,-0.9119,-0.9081,-0.9108,-0.9084,-0.9084,-0.9072,-0.9072,-0.8998,-0.9076,-0.9076,-0.9076,-0.9076,0,-0.9035,-0.9018,-0.9046,-0.9036,-0.9017,-0.904,-0.9021,-0.9029,-0.9036,-0.9027,-0.9052,-0.9043,-0.9067,-0.906,-0.9073,-0.9055,-0.9055,-0.906,-0.9063,-0.9055,-0.9054,-0.9051,-0.9053,-0.9074,-0.9074,-0.9075,-0.9075,0,-0.8968,-0.8987,-0.8971,-0.8987,-0.899,-0.8975,-0.8989,-0.8979,-0.8992,-0.898,-0.8979,-0.8997,-0.8991,-0.9008,-0.9004,-0.9013,-0.8986,-0.8996,-0.8984,-0.8985,-0.8959,-0.896,-0.8878,-0.8867,-0.8955,-0.8954,-0.8953,0,-0.8929,-0.8916,-0.8931,-0.8928,-0.8932,-0.8926,-0.8924,-0.8948,-0.8945,-0.8951,-0.8941,-0.8937,-0.8934,-0.8922,-0.8935,-0.8932,-0.894,-0.8911,-0.8939,-0.8932,-0.8935,-0.8934,-0.8932,-0.8904,-0.8903,-0.8902,-0.8901,0,-0.8856,-0.8867,-0.8864,-0.8864,-0.8862,-0.8863,-0.8866,-0.8862,-0.8887,-0.8882,-0.8876,-0.8874,-0.8871,-0.8866,-0.8866,-0.8871,-0.8889,-0.8893,-0.8887,-0.8877,-0.8869,-0.887,-0.8964,-0.8894,-0.8895,-0.8895,-0.8896,-0.8896,-0.88,-0.8789,-0.8798,-0.8794,-0.88,-0.8802,-0.8794,-0.8806,-0.8802,-0.8801,-0.8815,-0.8806,-0.8813,-0.8815,-0.8818,-0.8811,-0.8824,-0.8815,-0.8812,-0.8809,-0.8803,-0.8874,-0.8812,-0.8812,-0.8812,-0.8812,-0.8812,0,-0.8726,-0.8734,-0.873,-0.8734,-0.873,-0.8751,-0.8756,-0.8751,-0.8743,-0.8749,-0.8746,-0.8739,-0.8735,-0.8748,-0.8745,-0.8736,-0.8745,-0.8735,-0.8733,-0.8734,-0.8794,-0.8798,-0.8728,-0.8728,-0.8728,-0.8728,-0.8728,-0.8728,-0.8686,-0.8669,-0.8681,-0.8667,-0.8675,-0.8666,-0.8667,-0.8669,-0.8674,-0.8665,-0.8662,-0.8671,-0.868,-0.8678,-0.8674,-0.8678,-0.8675,-0.8661,-0.8667,-0.8722,-0.873,-0.8737,-0.8741,-0.8661,-0.8661,-0.8608,-0.8607,-0.8607]},{"header":{"parameterUnit":"m.s-1","parameterCategory":1,"la1":30.2991,"la2":30.254,"lo1":-89.0895,"lo2":-89.0444,"dy":0.0017,"dx":0.0017,"nx":28,"ny":28,"refTime":"2023-09-01T21:00:00:Z","depth":0,"parameterNumber":3,"parameterNumberName":"V-component_of_WINDS"},"data":[0,0,0,0,0,0,0,0,0,0,0,0,0,0,0,0,0,0,0,0,0,0,0,0,0,0,0,0,0,0,0,0,0,0,0,0,0,0,0,0,0,0,0,0,0,0,0,0,0,0,0,0,0,0,0,0,0,0,-0.8749,-0.8749,0,-0.878,-0.8781,-0.8781,-0.8842,-0.8843,-0.8844,-0.8846,-0.8876,-0.8875,-0.8875,0,0,0,0,0,0,0,0,0,0,0,0,0,-0.8738,-0.8738,-0.8749,-0.8749,-0.8749,-0.878,-0.8781,-0.8781,-0.8842,-0.8843,-0.8845,-0.8846,-0.8876,-0.8875,-0.8875,0,0,0,0,0,0,0,0,0,0,0,0,0,-0.8754,-0.8738,-0.8748,-0.8783,-0.8787,-0.878,-0.8781,-0.8781,-0.8841,-0.8843,-0.8845,-0.8847,-0.8876,-0.8875,-0.8875,-0.8836,0,0,-0.8873,-0.8873,0,0,0,0,0,0,0,0,-0.8753,-0.8754,-0.8778,-0.8781,-0.8785,-0.8809,-0.8788,-0.8799,-0.8841,-0.8821,-0.8846,-0.8848,-0.8852,-0.8853,-0.8855,-0.8837,-0.8838,-0.8873,-0.8873,-0.8873,-0.8873,0,0,0,0,0,0,0,-0.8751,-0.8753,-0.8761,-0.8778,-0.8782,-0.8797,-0.8801,-0.879,-0.8826,-0.8823,-0.8827,-0.883,-0.8854,-0.8856,-0.8856,-0.8839,-0.8873,-0.8873,-0.8873,-0.8872,-0.8789,-0.8787,0,0,0,0,0,0,-0.8746,-0.8752,-0.876,-0.8762,-0.8773,-0.8795,-0.88,-0.8799,-0.8826,-0.8832,-0.8829,-0.8833,-0.8856,-0.8857,-0.8858,-0.8812,-0.8873,-0.8872,-0.8872,-0.8791,-0.8788,-0.8786,0,0,0,0,0,0,-0.8745,-0.8746,-0.8759,-0.8758,-0.8761,-0.8794,-0.8792,-0.8799,-0.8801,-0.8831,-0.8837,-0.8824,-0.8857,-0.8858,-0.8841,-0.8814,-0.8872,-0.8872,-0.8793,-0.879,-0.8787,-0.8722,0,0,0,0,0,0,-0.8745,-0.8745,-0.8731,-0.8757,-0.8761,-0.8741,-0.8791,-0.8798,-0.88,-0.8806,-0.8828,-0.8833,-0.8859,-0.8841,-0.884,-0.8815,-0.8871,-0.8795,-0.8792,-0.8788,-0.8727,-0.8717,-0.8709,0,0,0,0,0,-0.8744,-0.8711,-0.873,-0.8731,-0.8744,-0.874,-0.8742,-0.8772,-0.8798,-0.8783,-0.8802,-0.8832,-0.8818,-0.8839,-0.8838,-0.8812,-0.8797,-0.8793,-0.8789,-0.873,-0.8719,-0.8709,0,0,0,0,0,0,-0.8681,-0.8715,-0.8737,-0.8712,-0.8722,-0.875,-0.8733,-0.876,-0.8763,-0.8768,-0.8805,-0.881,-0.8786,-0.8798,-0.8821,-0.8775,-0.8812,-0.8807,-0.8768,-0.8758,-0.8749,-0.8746,-0.8871,0,0,0,0,0,-0.8664,-0.8659,-0.8689,-0.8664,-0.8668,-0.87,-0.8699,-0.8722,-0.8734,-0.8739,-0.8757,-0.8767,-0.8764,-0.8762,-0.8762,-0.8729,-0.8734,-0.8711,-0.8702,-0.8695,-0.869,-0.8672,-0.8662,-0.8772,-0.8772,-0.8772,0,0,-0.8629,-0.8647,-0.8642,-0.8652,-0.8663,-0.8655,-0.8703,-0.8693,-0.8688,-0.8737,-0.8721,-0.8735,-0.8748,-0.8722,-0.8712,-0.8731,-0.8661,-0.869,-0.8683,-0.8682,-0.8666,-0.8656,-0.8647,-0.8769,-0.877,-0.877,0,0,-0.8561,-0.8575,-0.8555,-0.8565,-0.8582,-0.8603,-0.8598,-0.8622,-0.8632,-0.8617,-0.8654,-0.8648,-0.8643,-0.8651,-0.8654,-0.8589,-0.8616,-0.8588,-0.8542,-0.8524,-0.8515,-0.8508,-0.8483,-0.8473,-0.8584,-0.8583,-0.8583,0,-0.8515,-0.8506,-0.8541,-0.8529,-0.8532,-0.8577,-0.8556,-0.8564,-0.8579,-0.8579,-0.8601,-0.8596,-0.8609,-0.8585,-0.8569,-0.8571,-0.8565,-0.8585,-0.8514,-0.8507,-0.85,-0.8476,-0.8467,-0.858,-0.858,-0.8581,-0.8581,0,-0.8448,-0.8441,-0.8423,-0.8436,-0.8437,-0.8421,-0.8453,-0.8449,-0.8472,-0.849,-0.8474,-0.8491,-0.8494,-0.849,-0.8512,-0.8469,-0.848,-0.8507,-0.8545,-0.8485,-0.8464,-0.8455,-0.8574,-0.8576,-0.8577,-0.8578,0,0,-0.8339,-0.8373,-0.8365,-0.8372,-0.8393,-0.8388,-0.8374,-0.8377,-0.8373,-0.8382,-0.8369,-0.8365,-0.839,-0.8394,-0.8417,-0.8402,-0.8347,-0.8431,-0.8432,-0.8413,-0.8298,-0.8275,-0.8264,-0.8366,-0.8364,-0.8363,-0.8296,0,-0.8274,-0.8252,-0.8283,-0.8252,-0.8246,-0.8289,-0.8276,-0.8287,-0.8304,-0.83,-0.8319,-0.8314,-0.8349,-0.8351,-0.8338,-0.8356,-0.8324,-0.8362,-0.8352,-0.8352,-0.8345,-0.8254,-0.823,-0.8166,-0.8288,-0.8286,-0.8285,0,-0.8195,-0.8201,-0.817,-0.8192,-0.8191,-0.8179,-0.8184,-0.818,-0.8193,-0.8207,-0.8211,-0.8239,-0.8225,-0.8263,-0.8243,-0.8268,-0.8267,-0.8275,-0.8274,-0.8272,-0.8313,-0.8247,-0.8146,-0.8136,-0.8273,-0.8274,-0.8275,0,-0.8117,-0.8117,-0.8098,-0.8102,-0.8129,-0.8119,-0.8129,-0.8144,-0.8144,-0.8149,-0.8149,-0.8152,-0.8153,-0.8154,-0.8182,-0.8207,-0.8158,-0.8199,-0.8167,-0.8166,-0.8153,-0.8153,-0.8048,-0.8155,-0.8155,-0.8155,-0.8156,0,-0.804,-0.8018,-0.8063,-0.8051,-0.8028,-0.8064,-0.804,-0.8055,-0.8068,-0.8059,-0.8097,-0.8087,-0.8126,-0.812,-0.8142,-0.8121,-0.8122,-0.8131,-0.8136,-0.8126,-0.8125,-0.8124,-0.8128,-0.8153,-0.8153,-0.8154,-0.8154,0,-0.7947,-0.7976,-0.7958,-0.7985,-0.7991,-0.7973,-0.7995,-0.7985,-0.8005,-0.7993,-0.7992,-0.8022,-0.8017,-0.8046,-0.8046,-0.8061,-0.8029,-0.8043,-0.8024,-0.8027,-0.7993,-0.7995,-0.7883,-0.7869,-0.7987,-0.7985,-0.7984,0,-0.7895,-0.788,-0.7905,-0.7902,-0.7911,-0.7905,-0.7906,-0.7941,-0.7939,-0.7953,-0.794,-0.7939,-0.7939,-0.7929,-0.7951,-0.7951,-0.7964,-0.7925,-0.7964,-0.7954,-0.7961,-0.7961,-0.7958,-0.7915,-0.7914,-0.7913,-0.7912,0,-0.7799,-0.7814,-0.7813,-0.7817,-0.7817,-0.7821,-0.7828,-0.7824,-0.7861,-0.7858,-0.7854,-0.7854,-0.7854,-0.7852,-0.7856,-0.7866,-0.7894,-0.79,-0.7892,-0.788,-0.7869,-0.7872,-0.7999,-0.7902,-0.7903,-0.7903,-0.7904,-0.7904,-0.7724,-0.7711,-0.7727,-0.7725,-0.7734,-0.774,-0.7731,-0.775,-0.7747,-0.7751,-0.7772,-0.7763,-0.7776,-0.7785,-0.7792,-0.7785,-0.7804,-0.7793,-0.779,-0.7786,-0.7779,-0.7872,-0.7786,-0.7787,-0.7787,-0.7787,-0.7788,0,-0.7627,-0.764,-0.7638,-0.7646,-0.7644,-0.7673,-0.7682,-0.7678,-0.767,-0.7681,-0.768,-0.7675,-0.7672,-0.7694,-0.7694,-0.7684,-0.7697,-0.7683,-0.7683,-0.7684,-0.7764,-0.7769,-0.7672,-0.7672,-0.7672,-0.7672,-0.7672,-0.7672,-0.7577,-0.7558,-0.7574,-0.7559,-0.7572,-0.7565,-0.7567,-0.7572,-0.758,-0.7573,-0.7571,-0.7586,-0.76,-0.7601,-0.76,-0.7606,-0.7603,-0.7584,-0.7594,-0.7668,-0.7679,-0.7689,-0.7695,-0.7584,-0.7584,-0.7515,-0.7515,-0.7514]}]]